Retour au catalogue

METEOR 2-14

ActifMétéoPO
NORAD 16735·PAYLOAD·🇷🇺 Russia

Lancé May 27, 1986 depuis Plesetsk Cosmodrome

Loading…

Prochains Passages (prochaines 24 heures)

TLE

FraisSource: Space-Track

Époque: Sep 14, 2026, 15:35 UTC

1 16735U 86039A   26257.64996571  .00000049  00000-0  30263-4 0  9998
2 16735  82.5363 212.5023 0013632 316.9888 216.3528 13.85556882 37080

Suivez METEOR 2-14 en temps réel avec AllMySat

Download on the App Store